CES2179 ZSYT-ZYYJ

Flight info

Callsign CES2179
Flight time N/A
Altitude 29100
Route ZSYT FZ W4 WEH H152 OBDIS A326 SANKO W107 CHI A588 NUBKI H115 YNJ ZYYJ
Aircraft A320/M-SDE3FGHIRWY/LB1

Departure

Time 2026-04-19 02:28
Airport Yantai Penglai International Airport (ZSYT)

Arrival

Time N/A
Airport Yanji Chaoyangchuan Airport (ZYYJ)
Time Latitude Longitude Altitude Speed Heading
2026-04-19 02:15 37.65586 120.98499 162 ft 0 kts 306°
2026-04-19 02:16 37.65585 120.98500 162 ft 2 kts 306°
2026-04-19 02:16 37.65575 120.98521 159 ft 3 kts 286°
2026-04-19 02:17 37.65572 120.98545 159 ft 3 kts 272°
2026-04-19 02:17 37.65571 120.98565 159 ft 0 kts 275°
2026-04-19 02:20 37.65571 120.98566 159 ft 0 kts 275°
2026-04-19 02:20 37.65571 120.98563 159 ft 1 kts 275°
2026-04-19 02:20 37.65566 120.98536 161 ft 5 kts 244°
2026-04-19 02:21 37.65529 120.98509 159 ft 8 kts 218°
2026-04-19 02:21 37.65484 120.98456 159 ft 10 kts 221°
2026-04-19 02:21 37.65459 120.98384 159 ft 9 kts 290°
2026-04-19 02:21 37.65505 120.98315 159 ft 11 kts 311°
2026-04-19 02:22 37.65562 120.98234 159 ft 13 kts 311°
2026-04-19 02:22 37.65628 120.98142 159 ft 13 kts 309°
2026-04-19 02:22 37.65654 120.98073 159 ft 8 kts 289°
2026-04-19 02:22 37.65692 120.98006 159 ft 11 kts 311°
2026-04-19 02:23 37.65745 120.97929 159 ft 13 kts 311°
2026-04-19 02:23 37.65787 120.97906 159 ft 7 kts 12°
2026-04-19 02:23 37.65830 120.97946 160 ft 9 kts 42°
2026-04-19 02:23 37.65882 120.98005 160 ft 12 kts 42°
2026-04-19 02:24 37.65953 120.98087 160 ft 16 kts 42°
2026-04-19 02:24 37.66044 120.98192 160 ft 20 kts 43°
2026-04-19 02:24 37.66155 120.98318 160 ft 23 kts 41°
2026-04-19 02:24 37.66263 120.98442 160 ft 21 kts 42°
2026-04-19 02:25 37.66376 120.98570 159 ft 23 kts 42°
2026-04-19 02:25 37.66499 120.98711 159 ft 25 kts 41°
2026-04-19 02:25 37.66633 120.98862 160 ft 27 kts 42°
2026-04-19 02:25 37.66742 120.98987 160 ft 20 kts 42°
2026-04-19 02:26 37.66848 120.99109 160 ft 17 kts 42°
2026-04-19 02:26 37.66931 120.99203 160 ft 14 kts 42°
2026-04-19 02:26 37.66989 120.99265 160 ft 8 kts 27°
2026-04-19 02:26 37.67042 120.99236 160 ft 10 kts 309°
2026-04-19 02:27 37.67089 120.99170 161 ft 9 kts 313°
2026-04-19 02:27 37.67094 120.99114 162 ft 7 kts 221°
2026-04-19 02:27 37.67077 120.99096 162 ft 0 kts 223°
2026-04-19 02:27 37.67059 120.99075 162 ft 11 kts 223°
2026-04-19 02:28 37.66839 120.98824 162 ft 76 kts 222°
2026-04-19 02:28 37.66303 120.98213 161 ft 128 kts 222°
2026-04-19 02:28 37.65540 120.97341 209 ft 164 kts 222°
2026-04-19 02:28 37.64711 120.96379 825 ft 162 kts 223°
2026-04-19 02:29 37.63887 120.95418 1552 ft 160 kts 222°
2026-04-19 02:29 37.63071 120.94466 2259 ft 159 kts 221°
2026-04-19 02:29 37.62259 120.93517 2909 ft 158 kts 221°
2026-04-19 02:29 37.61447 120.92569 3486 ft 163 kts 220°
2026-04-19 02:30 37.60561 120.91539 3735 ft 184 kts 221°
2026-04-19 02:30 37.59524 120.90428 3969 ft 208 kts 209°
2026-04-19 02:30 37.58057 120.89995 4355 ft 233 kts 174°
2026-04-19 02:30 37.56530 120.90889 4847 ft 259 kts 137°
2026-04-19 02:31 37.55424 120.92741 5662 ft 269 kts 123°
2026-04-19 02:31 37.54523 120.94829 6574 ft 273 kts 118°
2026-04-19 02:31 37.53694 120.96996 7435 ft 276 kts 117°
2026-04-19 02:31 37.52869 120.99186 8347 ft 278 kts 118°
2026-04-19 02:32 37.52021 121.01386 9212 ft 280 kts 118°
2026-04-19 02:32 37.51142 121.03595 10019 ft 284 kts 118°
2026-04-19 02:32 37.50214 121.05863 10466 ft 301 kts 120°
2026-04-19 02:32 37.49202 121.08283 10688 ft 324 kts 120°
2026-04-19 02:33 37.48124 121.10838 11169 ft 334 kts 120°
2026-04-19 02:33 37.47024 121.13442 11820 ft 339 kts 120°
2026-04-19 02:33 37.45908 121.16080 12519 ft 343 kts 120°
2026-04-19 02:33 37.44907 121.18833 13168 ft 350 kts 111°
2026-04-19 02:34 37.44156 121.21773 13811 ft 355 kts 110°
2026-04-19 02:34 37.43401 121.24743 14386 ft 358 kts 110°
2026-04-19 02:34 37.42638 121.27742 15002 ft 361 kts 109°
2026-04-19 02:34 37.41870 121.30756 15599 ft 364 kts 109°
2026-04-19 02:35 37.41095 121.33796 16202 ft 367 kts 109°
2026-04-19 02:35 37.40312 121.36867 16771 ft 370 kts 109°
2026-04-19 02:35 37.39535 121.39923 17331 ft 373 kts 109°
2026-04-19 02:35 37.38747 121.43047 17921 ft 377 kts 108°
2026-04-19 02:36 37.37954 121.46206 18468 ft 380 kts 108°
2026-04-19 02:36 37.37155 121.49391 18965 ft 384 kts 108°
2026-04-19 02:36 37.36345 121.52604 19455 ft 388 kts 107°
2026-04-19 02:36 37.35525 121.55847 19959 ft 391 kts 107°
2026-04-19 02:37 37.34695 121.59123 20436 ft 395 kts 107°
2026-04-19 02:37 37.33858 121.62431 20915 ft 399 kts 107°
2026-04-19 02:37 37.33012 121.65769 21376 ft 403 kts 106°
2026-04-19 02:37 37.32156 121.69136 21829 ft 406 kts 106°
2026-04-19 02:38 37.31291 121.72531 22299 ft 409 kts 106°
2026-04-19 02:38 37.30421 121.75948 22749 ft 412 kts 106°
2026-04-19 02:38 37.29544 121.79390 23214 ft 415 kts 106°
2026-04-19 02:38 37.28659 121.82858 23662 ft 419 kts 105°
2026-04-19 02:39 37.27767 121.86349 24032 ft 422 kts 105°
2026-04-19 02:39 37.26866 121.89869 24403 ft 425 kts 105°
2026-04-19 02:39 37.25957 121.93408 24776 ft 428 kts 105°
2026-04-19 02:39 37.25040 121.96971 25150 ft 430 kts 105°
2026-04-19 02:40 37.24116 122.00557 25522 ft 433 kts 104°
2026-04-19 02:40 37.23183 122.04168 25884 ft 436 kts 104°
2026-04-19 02:40 37.22245 122.07796 26249 ft 439 kts 104°
2026-04-19 02:40 37.21339 122.11449 26658 ft 437 kts 99°
2026-04-19 02:41 37.21037 122.15197 27032 ft 429 kts 82°
2026-04-19 02:41 37.21586 122.18830 27391 ft 422 kts 66°
2026-04-19 02:41 37.22910 122.22067 27753 ft 415 kts 50°
2026-04-19 02:41 37.24862 122.24688 28120 ft 410 kts 35°
2026-04-19 02:42 37.27275 122.26546 28497 ft 406 kts 21°
2026-04-19 02:42 37.29919 122.27805 28851 ft 408 kts 18°
2026-04-19 02:42 37.32590 122.29031 29094 ft 409 kts 18°
2026-04-19 02:42 37.35233 122.30241 29133 ft 399 kts 18°
2026-04-19 02:43 37.40371 122.32606 29129 ft 394 kts 18°
2026-04-19 02:43 37.45516 122.34983 29143 ft 394 kts 18°
2026-04-19 02:44 37.50664 122.37366 29130 ft 394 kts 18°
2026-04-19 02:44 37.55820 122.39747 29130 ft 395 kts 18°
2026-04-19 02:45 37.60974 122.42138 29131 ft 395 kts 18°
2026-04-19 02:45 37.66130 122.44543 29131 ft 395 kts 18°
2026-04-19 02:46 37.71287 122.46944 29126 ft 395 kts 18°
2026-04-19 02:46 37.76454 122.49343 29122 ft 396 kts 18°
2026-04-19 02:47 37.81625 122.51749 29126 ft 396 kts 18°
2026-04-19 02:47 37.86799 122.54167 29120 ft 397 kts 18°
2026-04-19 02:48 37.91978 122.56591 29119 ft 397 kts 18°
2026-04-19 02:48 37.97163 122.59021 29123 ft 397 kts 18°
2026-04-19 02:49 38.02347 122.61456 29118 ft 398 kts 17°
2026-04-19 02:49 38.06812 122.62575 29124 ft 393 kts 358°
2026-04-19 02:50 38.10407 122.61830 29116 ft 393 kts 341°
2026-04-19 02:50 38.12882 122.60366 29117 ft 394 kts 328°
2026-04-19 02:51 38.18239 122.54062 29123 ft 396 kts 316°
2026-04-19 02:51 38.22241 122.49288 29137 ft 393 kts 326°
2026-04-19 02:51 38.24622 122.47590 29139 ft 392 kts 337°
2026-04-19 02:52 38.27220 122.46550 29137 ft 392 kts 348°
2026-04-19 02:52 38.29939 122.46221 29135 ft 394 kts 359°
2026-04-19 02:52 38.32677 122.46553 29134 ft 396 kts
2026-04-19 02:53 38.38145 122.47435 29128 ft 396 kts
2026-04-19 02:53 38.43620 122.48304 29128 ft 396 kts
2026-04-19 02:54 38.49093 122.49164 29127 ft 396 kts
2026-04-19 02:54 38.54569 122.50031 29128 ft 396 kts
2026-04-19 02:55 38.60042 122.50904 29126 ft 396 kts
2026-04-19 02:55 38.65485 122.51778 29127 ft 397 kts
2026-04-19 02:56 38.70971 122.52658 29133 ft 397 kts
2026-04-19 02:56 38.76459 122.53539 29129 ft 398 kts
2026-04-19 02:57 38.81953 122.54423 29120 ft 398 kts
2026-04-19 02:57 38.87465 122.55317 29116 ft 400 kts
2026-04-19 02:58 38.92995 122.56213 29116 ft 401 kts
2026-04-19 02:58 38.98541 122.57100 29123 ft 401 kts
2026-04-19 02:59 39.04096 122.57991 29121 ft 402 kts
2026-04-19 02:59 39.09622 122.58885 29117 ft 403 kts
2026-04-19 03:00 39.15196 122.59791 29123 ft 403 kts
2026-04-19 03:00 39.20773 122.60701 29129 ft 404 kts
2026-04-19 03:01 39.26324 122.61916 29130 ft 409 kts 13°
2026-04-19 03:01 39.31500 122.65090 29130 ft 415 kts 25°
2026-04-19 03:02 39.36548 122.68718 29131 ft 415 kts 25°
2026-04-19 03:02 39.41615 122.72336 29128 ft 416 kts 25°
2026-04-19 03:03 39.46685 122.75960 29130 ft 417 kts 25°
2026-04-19 03:03 39.51757 122.79594 29127 ft 417 kts 24°
2026-04-19 03:04 39.56808 122.83216 29119 ft 418 kts 24°
2026-04-19 03:04 39.61893 122.86879 29121 ft 418 kts 24°
2026-04-19 03:05 39.66987 122.90553 29121 ft 419 kts 25°
2026-04-19 03:05 39.72088 122.94228 29121 ft 419 kts 25°
2026-04-19 03:06 39.77190 122.97915 29124 ft 420 kts 25°
2026-04-19 03:06 39.82293 123.01614 29132 ft 420 kts 24°
2026-04-19 03:07 39.87406 123.05325 29122 ft 421 kts 24°
2026-04-19 03:07 39.92529 123.09039 29118 ft 422 kts 24°
2026-04-19 03:08 39.97662 123.12755 29128 ft 422 kts 24°
2026-04-19 03:08 40.02807 123.16474 29124 ft 422 kts 24°
2026-04-19 03:09 40.07952 123.20186 29121 ft 423 kts 24°
2026-04-19 03:09 40.13096 123.23896 29115 ft 423 kts 24°
2026-04-19 03:10 40.18246 123.27606 29115 ft 422 kts 24°
2026-04-19 03:10 40.23395 123.31318 29108 ft 423 kts 24°
2026-04-19 03:11 40.28543 123.35048 29112 ft 423 kts 24°
2026-04-19 03:11 40.33663 123.38766 29106 ft 423 kts 24°
2026-04-19 03:12 40.38811 123.42507 29093 ft 423 kts 24°
2026-04-19 03:12 40.43967 123.46255 29102 ft 424 kts 25°
2026-04-19 03:13 40.49134 123.50015 29092 ft 425 kts 24°
2026-04-19 03:13 40.54312 123.53791 29078 ft 426 kts 24°
2026-04-19 03:14 40.59501 123.57589 29074 ft 427 kts 24°
2026-04-19 03:14 40.64696 123.61396 29072 ft 428 kts 24°
2026-04-19 03:15 40.69897 123.65206 29077 ft 428 kts 24°
2026-04-19 03:15 40.75066 123.68993 29089 ft 428 kts 24°
2026-04-19 03:16 40.80271 123.72830 29083 ft 429 kts 24°
2026-04-19 03:16 40.85485 123.76664 29077 ft 429 kts 24°
2026-04-19 03:17 40.90733 123.80406 29073 ft 429 kts 23°
2026-04-19 03:17 40.95993 123.84125 29066 ft 429 kts 23°
2026-04-19 03:18 41.01242 123.87878 29064 ft 429 kts 24°
2026-04-19 03:18 41.06494 123.91646 29072 ft 429 kts 23°
2026-04-19 03:19 41.11759 123.95426 29059 ft 430 kts 23°
2026-04-19 03:19 41.17025 123.99217 29036 ft 431 kts 24°
2026-04-19 03:20 41.22306 124.03031 29051 ft 433 kts 23°
2026-04-19 03:20 41.27596 124.06861 29047 ft 433 kts 23°
2026-04-19 03:21 41.32886 124.10688 29041 ft 433 kts 23°
2026-04-19 03:21 41.38176 124.14519 29041 ft 433 kts 23°
2026-04-19 03:22 41.43464 124.18381 29035 ft 433 kts 24°
2026-04-19 03:22 41.48722 124.22337 29027 ft 434 kts 24°
2026-04-19 03:23 41.53931 124.26298 29028 ft 434 kts 24°
2026-04-19 03:23 41.59191 124.30277 29022 ft 434 kts 24°
2026-04-19 03:24 41.64456 124.34242 29014 ft 435 kts 24°
2026-04-19 03:24 41.69726 124.38225 29005 ft 435 kts 24°
2026-04-19 03:25 41.74987 124.42225 29002 ft 435 kts 24°
2026-04-19 03:25 41.80249 124.46234 28998 ft 435 kts 24°
2026-04-19 03:26 41.85517 124.50247 29010 ft 436 kts 24°
2026-04-19 03:26 41.90796 124.54272 28986 ft 437 kts 25°
2026-04-19 03:26 41.93305 124.56614 28977 ft 444 kts 37°
2026-04-19 03:27 41.95436 124.59648 28977 ft 451 kts 49°
2026-04-19 03:27 41.97070 124.63264 28973 ft 456 kts 62°
2026-04-19 03:27 41.98112 124.67312 28974 ft 461 kts 76°
2026-04-19 03:28 41.98648 124.75916 28973 ft 464 kts 86°
2026-04-19 03:28 41.98960 124.84581 28978 ft 464 kts 85°
2026-04-19 03:29 41.99264 124.93203 28978 ft 465 kts 86°
2026-04-19 03:29 41.99567 125.01885 28986 ft 465 kts 86°
2026-04-19 03:30 41.99880 125.10566 28983 ft 465 kts 86°
2026-04-19 03:30 42.00184 125.19252 28985 ft 465 kts 86°
2026-04-19 03:31 42.00519 125.27927 29015 ft 464 kts 85°
2026-04-19 03:31 42.00927 125.36595 29012 ft 464 kts 85°
2026-04-19 03:32 42.01340 125.45260 29011 ft 464 kts 85°
2026-04-19 03:32 42.01729 125.53914 29012 ft 464 kts 85°
2026-04-19 03:33 42.02090 125.62516 29015 ft 463 kts 85°
2026-04-19 03:33 42.02448 125.71176 29018 ft 463 kts 85°
2026-04-19 03:34 42.02805 125.79816 29034 ft 462 kts 85°
2026-04-19 03:34 42.03156 125.88443 29032 ft 462 kts 85°
2026-04-19 03:35 42.03496 125.97063 29028 ft 462 kts 85°
2026-04-19 03:35 42.03833 126.05679 29032 ft 462 kts 85°
2026-04-19 03:36 42.04164 126.14302 29026 ft 461 kts 85°
2026-04-19 03:36 42.04487 126.22916 29037 ft 460 kts 85°
2026-04-19 03:37 42.04751 126.30057 29036 ft 460 kts 85°
2026-04-19 03:37 42.05065 126.38647 29041 ft 459 kts 85°
2026-04-19 03:38 42.05372 126.47215 29033 ft 459 kts 85°
2026-04-19 03:38 42.05665 126.55795 29024 ft 459 kts 85°
2026-04-19 03:39 42.05952 126.64373 29024 ft 459 kts 85°
2026-04-19 03:39 42.06241 126.72952 29018 ft 458 kts 85°
2026-04-19 03:40 42.06525 126.81522 29013 ft 458 kts 85°
2026-04-19 03:40 42.06793 126.90099 29010 ft 459 kts 85°
2026-04-19 03:41 42.07056 126.98681 29011 ft 459 kts 85°
2026-04-19 03:41 42.07319 127.07246 29016 ft 458 kts 85°
2026-04-19 03:42 42.07573 127.15801 29017 ft 457 kts 85°
2026-04-19 03:42 42.07687 127.19825 29013 ft 457 kts 85°
2026-04-19 03:43 42.07738 127.21645 29009 ft 457 kts 85°
2026-04-19 03:43 42.07979 127.30197 29007 ft 457 kts 85°
2026-04-19 03:44 42.07996 127.30779 29007 ft 457 kts 85°
2026-04-19 03:44 42.08206 127.38427 29009 ft 457 kts 85°
2026-04-19 03:45 42.08431 127.46966 28990 ft 456 kts 85°
2026-04-19 03:45 42.08547 127.51454 28995 ft 455 kts 85°
2026-04-19 03:46 42.08559 127.51946 28996 ft 455 kts 85°